| time (UTC) | temp F | wind direction | speed MPH | gust MPH | rain 1hr in | rain 24hr in | rain mn in | humidity % | barometer mb |
| 20260902040015 | 60 | 214 | 17.0 | 0.0 | 0.00 | 0.00 | 0.01 | 86 | 1010.4 |
| 20260902034515 | 60 | 226 | 19.0 | 0.0 | 0.00 | 0.00 | 0.01 | 86 | 1010.4 |
| 20260902033002 | 60 | 225 | 19.0 | 0.0 | 0.00 | 0.00 | 0.01 | 86 | 1010.4 |
| 20260902031501 | 60 | 218 | 20.0 | 0.0 | 0.00 | 0.00 | 0.01 | 87 | 1010.4 |
| 20260902030000 | 59 | 220 | 20.0 | 0.0 | 0.00 | 0.00 | 0.01 | 87 | 1010.4 |
| 20260902024501 | 59 | 223 | 19.0 | 0.0 | 0.00 | 0.00 | 0.01 | 87 | 1010.4 |
| 20260902023109 | 59 | 216 | 21.0 | 0.0 | 0.00 | 0.00 | 0.01 | 87 | 1010.5 |
| 20260902021603 | 60 | 198 | 20.0 | 0.0 | 0.00 | 0.00 | 0.01 | 87 | 1010.4 |
| 20260902020059 | 60 | 227 | 22.0 | 0.0 | 0.00 | 0.00 | 0.01 | 86 | 1010.4 |
| 20260902014559 | 60 | 228 | 17.0 | 0.0 | 0.00 | 0.00 | 0.01 | 86 | 1010.2 |
| 20260902013040 | 61 | 214 | 15.0 | 0.0 | 0.00 | 0.00 | 0.01 | 87 | 1010.1 |
| 20260902011548 | 60 | 222 | 18.0 | 0.0 | 0.00 | 0.00 | 0.01 | 87 | 1010.1 |
| 20260902010100 | 60 | 233 | 18.0 | 0.0 | 0.00 | 0.00 | 0.01 | 87 | 1010.1 |
| 20260902004527 | 60 | 239 | 17.0 | 0.0 | 0.00 | 0.00 | 0.01 | 87 | 1010.1 |
| 20260902003028 | 60 | 219 | 16.0 | 0.0 | 0.00 | 0.00 | 0.01 | 87 | 1010.2 |
| 20260902001527 | 60 | 228 | 16.0 | 0.0 | 0.00 | 0.00 | 0.01 | 87 | 1010.3 |
| 20260902000038 | 60 | 225 | 16.0 | 0.0 | 0.00 | 0.00 | 0.01 | 87 | 1010.3 |
| 20260901234527 | 60 | 219 | 16.0 | 0.0 | 0.00 | 0.00 | 0.01 | 87 | 1010.4 |
| 20260901233027 | 60 | 237 | 16.0 | 0.0 | 0.00 | 0.00 | 0.01 | 86 | 1010.5 |
| 20260901231528 | 60 | 218 | 15.0 | 0.0 | 0.00 | 0.00 | 0.01 | 86 | 1010.7 |
| 20260901230026 | 60 | 212 | 14.0 | 0.0 | 0.00 | 0.00 | 0.01 | 86 | 1010.9 |
| 20260901224513 | 60 | 218 | 15.0 | 0.0 | 0.00 | 0.00 | 0.01 | 87 | 1010.8 |
| 20260901223032 | 60 | 235 | 15.0 | 0.0 | 0.00 | 0.00 | 0.01 | 86 | 1010.9 |
| 20260901221512 | 60 | 233 | 16.0 | 0.0 | 0.00 | 0.00 | 0.01 | 85 | 1010.9 |
| 20260901220010 | 61 | 236 | 16.0 | 0.0 | 0.00 | 0.00 | 0.01 | 86 | 1010.8 |
| 20260901214513 | 61 | 243 | 16.0 | 0.0 | 0.00 | 0.00 | 0.01 | 86 | 1010.8 |
| 20260901213009 | 61 | 229 | 15.0 | 0.0 | 0.00 | 0.00 | 0.01 | 86 | 1010.6 |
| 20260901211521 | 61 | 230 | 16.0 | 0.0 | 0.00 | 0.00 | 0.01 | 86 | 1010.6 |
| 20260901210056 | 61 | 233 | 17.0 | 0.0 | 0.00 | 0.00 | 0.01 | 86 | 1010.7 |
| 20260901204555 | 60 | 229 | 16.0 | 0.0 | 0.00 | 0.00 | 0.01 | 87 | 1010.4 |
| 20260901203052 | 60 | 235 | 14.0 | 0.0 | 0.00 | 0.00 | 0.01 | 87 | 1010.7 |
| 20260901201551 | 59 | 239 | 16.0 | 0.0 | 0.00 | 0.00 | 0.01 | 86 | 1010.7 |
| 20260901200104 | 60 | 235 | 15.0 | 0.0 | 0.00 | 0.00 | 0.01 | 87 | 1010.5 |
| 20260901194558 | 59 | 245 | 14.0 | 0.0 | 0.00 | 0.00 | 0.01 | 87 | 1010.6 |
| 20260901193058 | 59 | 237 | 13.0 | 0.0 | 0.00 | 0.00 | 0.01 | 87 | 1010.8 |
| 20260901191548 | 59 | 233 | 12.0 | 0.0 | 0.00 | 0.00 | 0.01 | 88 | 1010.8 |
| 20260901190101 | 59 | 239 | 13.0 | 0.0 | 0.00 | 0.00 | 0.01 | 88 | 1010.8 |
| 20260901184536 | 59 | 233 | 13.0 | 0.0 | 0.00 | 0.00 | 0.01 | 88 | 1010.8 |
| 20260901183041 | 59 | 239 | 14.0 | 0.0 | 0.00 | 0.00 | 0.01 | 89 | 1010.8 |
| 20260901181538 | 59 | 238 | 12.0 | 0.0 | 0.00 | 0.00 | 0.01 | 88 | 1010.7 |
| 20260901180035 | 59 | 240 | 11.0 | 0.0 | 0.00 | 0.00 | 0.01 | 89 | 1010.6 |
| 20260901174542 | 59 | 239 | 10.0 | 0.0 | 0.00 | 0.00 | 0.01 | 89 | 1010.6 |
| 20260901173035 | 59 | 257 | 10.0 | 0.0 | 0.00 | 0.00 | 0.01 | 89 | 1010.6 |
| 20260901171535 | 59 | 239 | 6.0 | 0.0 | 0.00 | 0.00 | 0.01 | 90 | 1010.6 |
| 20260901170053 | 59 | 237 | 6.0 | 0.0 | 0.00 | 0.00 | 0.01 | 90 | 1010.6 |
| 20260901164514 | 58 | 240 | 7.0 | 0.0 | 0.00 | 0.00 | 0.01 | 90 | 1010.5 |
| 20260901163018 | 58 | 205 | 6.0 | 0.0 | 0.00 | 0.00 | 0.01 | 90 | 1010.5 |
| 20260901161508 | 58 | 230 | 7.0 | 0.0 | 0.00 | 0.00 | 0.01 | 90 | 1010.6 |
| 20260901160005 | 58 | 230 | 8.0 | 0.0 | 0.00 | 0.00 | 0.01 | 90 | 1010.7 |
| 20260901154501 | 57 | 216 | 8.0 | 0.0 | 0.00 | 0.00 | 0.01 | 90 | 1010.8 |
| 20260901153001 | 57 | 220 | 7.0 | 0.0 | 0.00 | 0.00 | 0.01 | 90 | 1010.7 |
| 20260901151600 | 57 | 231 | 7.0 | 0.0 | 0.00 | 0.00 | 0.01 | 90 | 1010.7 |
| 20260901150059 | 57 | 210 | 7.0 | 0.0 | 0.00 | 0.00 | 0.01 | 90 | 1010.7 |
| 20260901144546 | 57 | 191 | 8.0 | 0.0 | 0.00 | 0.00 | 0.01 | 90 | 1010.7 |
| 20260901143038 | 57 | 238 | 10.0 | 0.0 | 0.00 | 0.00 | 0.01 | 90 | 1010.6 |
| 20260901141527 | 57 | 233 | 7.0 | 0.0 | 0.00 | 0.00 | 0.01 | 90 | 1010.3 |
| 20260901140028 | 57 | 214 | 7.0 | 0.0 | 0.00 | 0.00 | 0.01 | 90 | 1010.3 |
| 20260901134522 | 57 | 214 | 8.0 | 0.0 | 0.00 | 0.00 | 0.01 | 90 | 1010.2 |
| 20260901133021 | 57 | 207 | 9.0 | 0.0 | 0.00 | 0.00 | 0.01 | 90 | 1010.1 |
| 20260901131531 | 57 | 222 | 8.0 | 0.0 | 0.00 | 0.00 | 0.01 | 90 | 1010.1 |
| 20260901130020 | 57 | 226 | 7.0 | 0.0 | 0.00 | 0.00 | 0.01 | 90 | 1010.0 |
| 20260901124520 | 57 | 231 | 8.0 | 0.0 | 0.00 | 0.00 | 0.01 | 90 | 1010.0 |
| 20260901123020 | 57 | 217 | 8.0 | 0.0 | 0.00 | 0.00 | 0.01 | 90 | 1009.9 |
| 20260901121508 | 57 | 225 | 8.0 | 0.0 | 0.00 | 0.00 | 0.01 | 90 | 1010.0 |
| 20260901120009 | 57 | 227 | 7.0 | 0.0 | 0.00 | 0.00 | 0.01 | 90 | 1010.1 |
| 20260901114507 | 57 | 238 | 9.0 | 0.0 | 0.00 | 0.00 | 0.01 | 90 | 1010.1 |
| 20260901113007 | 57 | 227 | 9.0 | 0.0 | 0.00 | 0.00 | 0.01 | 90 | 1010.2 |
| 20260901111507 | 57 | 217 | 9.0 | 0.0 | 0.00 | 0.00 | 0.01 | 90 | 1010.2 |
| 20260901110006 | 57 | 234 | 9.0 | 0.0 | 0.00 | 0.00 | 0.00 | 90 | 1010.2 |
| 20260901104509 | 57 | 227 | 8.0 | 0.0 | 0.00 | 0.00 | 0.00 | 90 | 1010.3 |
| 20260901103005 | 57 | 231 | 9.0 | 0.0 | 0.00 | 0.00 | 0.00 | 90 | 1010.2 |
| 20260901101551 | 57 | 201 | 9.0 | 0.0 | 0.00 | 0.00 | 0.00 | 90 | 1010.1 |
| 20260901100100 | 57 | 223 | 10.0 | 0.0 | 0.00 | 0.00 | 0.00 | 90 | 1010.0 |
| 20260901094534 | 57 | 218 | 11.0 | 0.0 | 0.00 | 0.00 | 0.00 | 90 | 1010.2 |
| 20260901093033 | 57 | 218 | 10.0 | 0.0 | 0.00 | 0.00 | 0.00 | 90 | 1010.2 |
| 20260901091532 | 57 | 237 | 12.0 | 0.0 | 0.00 | 0.00 | 0.00 | 90 | 1010.3 |
| 20260901090040 | 57 | 243 | 10.0 | 0.0 | 0.00 | 0.00 | 0.00 | 90 | 1010.2 |
| 20260901084541 | 57 | 232 | 14.0 | 0.0 | 0.00 | 0.00 | 0.00 | 90 | 1010.2 |
| 20260901083035 | 57 | 243 | 15.0 | 0.0 | 0.00 | 0.00 | 0.00 | 90 | 1010.2 |
| 20260901081527 | 57 | 236 | 14.0 | 0.0 | 0.00 | 0.00 | 0.00 | 90 | 1010.2 |
| 20260901080026 | 57 | 235 | 14.0 | 0.0 | 0.00 | 0.00 | 0.00 | 90 | 1010.0 |
| 20260901074518 | 57 | 241 | 12.0 | 0.0 | 0.00 | 0.00 | 0.00 | 89 | 1009.8 |
| 20260901073025 | 57 | 229 | 12.0 | 0.0 | 0.00 | 0.00 | 0.00 | 89 | 1009.9 |
| 20260901071508 | 57 | 225 | 11.0 | 0.0 | 0.00 | 0.00 | 0.00 | 90 | 1009.8 |
| 20260901070009 | 57 | 229 | 14.0 | 0.0 | 0.00 | 0.00 | 0.00 | 89 | 1009.7 |
| 20260901064506 | 57 | 230 | 13.0 | 0.0 | 0.00 | 0.00 | 0.00 | 89 | 1009.7 |
| 20260901063004 | 57 | 234 | 12.0 | 0.0 | 0.00 | 0.00 | 0.00 | 89 | 1009.8 |
| 20260901061504 | 57 | 234 | 13.0 | 0.0 | 0.00 | 0.00 | 0.00 | 89 | 1010.0 |
| 20260901060003 | 57 | 235 | 11.0 | 0.0 | 0.00 | 0.00 | 0.00 | 89 | 1010.1 |
| 20260901054552 | 57 | 237 | 13.0 | 0.0 | 0.00 | 0.00 | 0.00 | 89 | 1010.1 |
| 20260901053118 | 57 | 238 | 12.0 | 0.0 | 0.00 | 0.00 | 0.00 | 89 | 1010.2 |
| 20260901051552 | 57 | 227 | 11.0 | 0.0 | 0.00 | 0.00 | 0.00 | 89 | 1010.1 |
| 20260901050056 | 57 | 234 | 8.0 | 0.0 | 0.00 | 0.00 | 0.00 | 89 | 1010.0 |
| 20260901044555 | 57 | 227 | 7.0 | 0.0 | 0.00 | 0.00 | 0.00 | 89 | 1010.1 |
| 20260901043051 | 57 | 227 | 6.0 | 0.0 | 0.00 | 0.00 | 0.00 | 89 | 1010.1 |
| 20260901041550 | 58 | 227 | 4.0 | 0.0 | 0.00 | 0.00 | 0.00 | 89 | 1010.0 |